COSMOS 252 DEB, 3559

Orbit data source: Space-Track

COSMOS 252 DEB, 3559 is space debris in LEO originally from a launch on Fri, 01 Nov 1968 UTC launched from the Tyuratam Missile And Space Complex (TTMTR). Debris objects in space refer to the collection of defunct objects orbiting the Earth. Examples of debris include non-operational satellites, rocket bodies, and fragments generated from explosions, collisions, or faulty payload assembly.

Loading next visibility...
Identifier
3559, 1968-097M
Orbit
LEO
Country
Flag of CISCIS
Related business
Manufacturer
Unknown
Mission
Spacecraft
Bus & Motor
Unknown
Mass
Unknown
Launch date (UTC)
1968-11-01 (57 years ago)
Launch vehicle
Unknown
Launch site
Tyuratam Missile And Space Complex (TTMTR)
Object type
Payload
Rocket body
Debris
Shape & HBR
Unknown shape, 0.2 m
Radar Cross Section
Small (<0.1 m²)

Expand to show TLE details & history
Last TLE update: 14 hours ago

TLE from 14 hours ago
0 COSMOS 252 DEB
1 03559U 68097M   26107.20689353  .00002213  00000-0  47925-3 0  9992
2 03559  62.2897 180.5026 0442039 242.3555 113.1973 14.14169413835261
Epoch: 2026-04-17T04:57Z
TLE epoch observation values (Epoch: 2026-04-17T04:57:55.600Z)
Latitude
-0.00002°
Longitude
-99.32248°
Altitude
984.251 km
Speed
7.29 km/s
True Right ascension
12h 02m 00s
True Declination
0° 00' 00"
Sunlit
Object was in full shadow at epoch
Visualization orbit readout
Latitude
Unknown
Longitude
Unknown
Altitude
Unknown
Speed
Unknown
Apparent Right ascension
Unknown
Apparent Declination
Unknown
Sunlit
N/A
Visualization observer readout
Local Sidereal Time
01:42:02
Azimuth
Unknown
Elevation
Unknown
Doppler factor
Unknown
Orbital elements
Apogee altitude
1,163.319 km
Perigee altitude
524.82 km
Semi-major axis
7,222.206 km
Eccentricity
0.0442
Inclination
62.2897°
RAAN
180.5026°
Arg. of periapsis
242.3555°
True anomaly
117.74914°
Mean anomaly
113.1973°
Eccentric anomaly
115.48359°
Mean motion
3.53621 °/min
Orbital period
101.8 mins
BSTAR
0.00047925
Loading maneuver chart data...
Computing Atmospheric mass density...

Documentation

Showing up to 5 results
|